This is the latest recevied weather packets stored in our database for station/object LKKV. If no packets are shown the sender has not sent any weather packets the latest 1 day(s).
| Time | Temp. | Humidity | Pressure | Rain* | Wind** | Luminosity | Snow |
|---|---|---|---|---|---|---|---|
| 1777997843 | 16.11° C | 77% | - | - | 4.02 m/s, 30° | - | - |
| 1777996932 | 16.11° C | 77% | 1006 hPa | - | 4.02 m/s, 30° | - | - |
| 1777995137 | 16.11° C | 77% | 1006 hPa | - | 3.58 m/s, 30° | - | - |
| 1777994182 | 16.11° C | 77% | - | - | 5.36 m/s, 40° | - | - |
| 1777993339 | 16.11° C | 77% | 1006 hPa | - | 4.47 m/s, 40° | - | - |
| 1777991537 | 16.11° C | 82% | 1006 hPa | - | 4.02 m/s, 60° | - | - |
| 1777990583 | 17.78° C | 67% | - | - | 4.02 m/s, 50° | - | - |
| 1777990143 | 17.22° C | 72% | 1007 hPa | - | 4.02 m/s, 70° | - | - |
| 1777989739 | 17.78° C | 63% | 1007 hPa | - | 4.02 m/s, 40° | - | - |
| 1777987930 | 18.89° C | 55% | 1007 hPa | - | 5.36 m/s, 10° | - | - |
| 1777986983 | 18.89° C | 55% | - | - | 5.36 m/s, 10° | - | - |
| 1777986133 | 18.89° C | 55% | 1007 hPa | - | 5.36 m/s, 10° | - | - |
| 1777984330 | 20° C | 49% | 1007 hPa | - | 2.68 m/s, 340° | - | - |
| 1777983383 | 20° C | 45% | - | - | 2.24 m/s, 30° | - | - |
| 1777982531 | 20° C | 45% | 1007 hPa | - | 0.89 m/s, 0° | - | - |
| 1777981262 | 20° C | 45% | 1007 hPa | - | 2.24 m/s, 70° | - | - |
| 1777980729 | 20° C | 45% | 1007 hPa | - | 2.68 m/s, 40° | - | - |
| 1777979782 | 22.22° C | 40% | - | - | 2.24 m/s, 330° | - | - |
| 1777978943 | 22.22° C | 40% | 1007 hPa | - | 1.34 m/s, 0° | - | - |
| 1777977183 | 21.11° C | 43% | 1008 hPa | - | 2.68 m/s, 50° | - | - |
| 1777976183 | 20° C | 45% | - | - | 2.24 m/s, 350° | - | - |
| 1777975332 | 20° C | 45% | 1008 hPa | - | 0.89 m/s, 0° | - | - |
| 1777973530 | 20° C | 45% | 1008 hPa | - | 3.13 m/s, 30° | - | - |
| 1777972583 | 20° C | 45% | - | - | 3.13 m/s, 30° | - | - |
| 1777971732 | 20° C | 49% | 1009 hPa | - | 3.13 m/s, 40° | - | - |
* Rain since midnight (hover to see other rain measurements)
** Current wind speed in m/s (hover to see current wind gust speed)